Year,Month,Day,Hour,Minute,Value (Times are PST for temperature in C)
2007,07,13,00,00,17.80
2007,07,13,00,01,17.80
2007,07,13,00,02,17.70
2007,07,13,00,03,17.70
2007,07,13,00,04,17.70
2007,07,13,00,05,17.60
2007,07,13,00,06,17.60
2007,07,13,00,07,17.60
2007,07,13,00,08,17.60
2007,07,13,00,09,17.60
2007,07,13,00,10,17.60
2007,07,13,00,11,17.60
2007,07,13,00,12,17.60
2007,07,13,00,13,17.60
2007,07,13,00,14,17.60
2007,07,13,00,15,17.60
2007,07,13,00,16,17.50
2007,07,13,00,17,17.50
2007,07,13,00,18,17.50
2007,07,13,00,19,17.50
2007,07,13,00,20,17.40
2007,07,13,00,21,17.40
2007,07,13,00,22,17.40
2007,07,13,00,23,17.30
2007,07,13,00,24,17.30
2007,07,13,00,25,17.30
2007,07,13,00,26,17.30
2007,07,13,00,27,17.30
2007,07,13,00,28,17.30
2007,07,13,00,29,17.30
2007,07,13,00,30,17.30
2007,07,13,00,31,17.30
2007,07,13,00,32,17.30
2007,07,13,00,33,17.30
2007,07,13,00,34,17.30
2007,07,13,00,35,17.30
2007,07,13,00,36,17.20
2007,07,13,00,37,17.20
2007,07,13,00,38,17.20
2007,07,13,00,39,17.20
2007,07,13,00,40,17.20
2007,07,13,00,41,17.10
2007,07,13,00,42,17.10
2007,07,13,00,43,17.10
2007,07,13,00,44,17.10
2007,07,13,00,45,17.10
2007,07,13,00,46,17.10
2007,07,13,00,47,17.10
2007,07,13,00,48,17.10
2007,07,13,00,49,17.20
2007,07,13,00,50,17.20
2007,07,13,00,51,17.10
2007,07,13,00,52,17.10
2007,07,13,00,53,17.10
2007,07,13,00,54,17.00
2007,07,13,00,55,17.00
2007,07,13,00,56,17.00
2007,07,13,00,57,17.00
2007,07,13,00,58,17.00
2007,07,13,00,59,17.00
2007,07,13,01,00,17.00
2007,07,13,01,01,17.00
2007,07,13,01,02,17.00
2007,07,13,01,03,17.00
2007,07,13,01,04,17.00
2007,07,13,01,05,17.00
2007,07,13,01,06,17.00
2007,07,13,01,07,17.00
2007,07,13,01,08,17.00
2007,07,13,01,09,17.00
2007,07,13,01,10,17.00
2007,07,13,01,11,17.00
2007,07,13,01,12,16.90
2007,07,13,01,13,16.90
2007,07,13,01,14,16.90
2007,07,13,01,15,16.80
2007,07,13,01,16,16.80
2007,07,13,01,17,16.80
2007,07,13,01,18,16.80
2007,07,13,01,19,16.80
2007,07,13,01,20,16.80
2007,07,13,01,21,16.80
2007,07,13,01,22,16.80
2007,07,13,01,23,16.80
2007,07,13,01,24,16.80
2007,07,13,01,25,16.80
2007,07,13,01,26,16.80
2007,07,13,01,27,16.80
2007,07,13,01,28,16.80
2007,07,13,01,29,16.80
2007,07,13,01,30,16.80
2007,07,13,01,31,16.80
2007,07,13,01,32,16.80
2007,07,13,01,33,16.80
2007,07,13,01,34,16.80
2007,07,13,01,35,16.80
2007,07,13,01,36,16.80
2007,07,13,01,37,16.80
2007,07,13,01,38,16.80
2007,07,13,01,39,16.80
2007,07,13,01,40,16.80
2007,07,13,01,41,16.80
2007,07,13,01,42,16.80
2007,07,13,01,43,16.80
2007,07,13,01,44,16.80
2007,07,13,01,45,16.80
2007,07,13,01,46,16.80
2007,07,13,01,47,16.80
2007,07,13,01,48,16.90
2007,07,13,01,49,16.90
2007,07,13,01,50,16.90
2007,07,13,01,51,16.90
2007,07,13,01,52,16.80
2007,07,13,01,53,16.80
2007,07,13,01,54,16.80
2007,07,13,01,55,16.80
2007,07,13,01,56,16.70
2007,07,13,01,57,16.70
2007,07,13,01,58,16.70
2007,07,13,01,59,16.70
2007,07,13,02,00,16.70
2007,07,13,02,01,16.70
2007,07,13,02,02,16.70
2007,07,13,02,03,16.70
2007,07,13,02,04,16.70
2007,07,13,02,05,16.70
2007,07,13,02,06,16.70
2007,07,13,02,07,16.70
2007,07,13,02,08,16.70
2007,07,13,02,09,16.70
2007,07,13,02,10,16.70
2007,07,13,02,11,16.70
2007,07,13,02,12,16.70
2007,07,13,02,13,16.70
2007,07,13,02,14,16.70
2007,07,13,02,15,16.70
2007,07,13,02,16,16.70
2007,07,13,02,17,16.70
2007,07,13,02,18,16.70
2007,07,13,02,19,16.70
2007,07,13,02,20,16.70
2007,07,13,02,21,16.70
2007,07,13,02,22,16.70
2007,07,13,02,23,16.70
2007,07,13,02,24,16.70
2007,07,13,02,25,16.70
2007,07,13,02,26,16.70
2007,07,13,02,27,16.70
2007,07,13,02,28,16.70
2007,07,13,02,29,16.70
2007,07,13,02,30,16.70
2007,07,13,02,31,16.70
2007,07,13,02,32,16.70
2007,07,13,02,33,16.70
2007,07,13,02,34,16.80
2007,07,13,02,35,16.80
2007,07,13,02,36,16.80
2007,07,13,02,37,16.80
2007,07,13,02,38,16.90
2007,07,13,02,39,16.90
2007,07,13,02,40,16.90
2007,07,13,02,41,16.90
2007,07,13,02,42,16.90
2007,07,13,02,43,16.90
2007,07,13,02,44,16.90
2007,07,13,02,45,16.90
2007,07,13,02,46,16.90
2007,07,13,02,47,16.90
2007,07,13,02,48,16.90
2007,07,13,02,49,16.90
2007,07,13,02,50,16.90
2007,07,13,02,51,16.90
2007,07,13,02,52,16.90
2007,07,13,02,53,16.90
2007,07,13,02,54,16.90
2007,07,13,02,55,16.80
2007,07,13,02,56,16.80
2007,07,13,02,57,16.80
2007,07,13,02,58,16.80
2007,07,13,02,59,16.90
2007,07,13,03,00,16.90
2007,07,13,03,01,16.90
2007,07,13,03,02,16.90
2007,07,13,03,03,16.80
2007,07,13,03,04,16.80
2007,07,13,03,05,16.80
2007,07,13,03,06,16.70
2007,07,13,03,07,16.70
2007,07,13,03,08,16.70
2007,07,13,03,09,16.70
2007,07,13,03,10,16.60
2007,07,13,03,11,16.60
2007,07,13,03,12,16.50
2007,07,13,03,13,16.40
2007,07,13,03,14,16.40
2007,07,13,03,15,16.40
2007,07,13,03,16,16.30
2007,07,13,03,17,16.30
2007,07,13,03,18,16.20
2007,07,13,03,19,16.20
2007,07,13,03,20,16.10
2007,07,13,03,21,16.10
2007,07,13,03,22,16.10
2007,07,13,03,23,16.10
2007,07,13,03,24,16.10
2007,07,13,03,25,16.00
2007,07,13,03,26,15.90
2007,07,13,03,27,15.90
2007,07,13,03,28,15.90
2007,07,13,03,29,15.90
2007,07,13,03,30,15.90
2007,07,13,03,31,15.90
2007,07,13,03,32,15.90
2007,07,13,03,33,15.90
2007,07,13,03,34,15.90
2007,07,13,03,35,15.90
2007,07,13,03,36,15.90
2007,07,13,03,37,15.90
2007,07,13,03,38,15.80
2007,07,13,03,39,15.80
2007,07,13,03,40,15.80
2007,07,13,03,41,15.80
2007,07,13,03,42,15.80
2007,07,13,03,43,15.80
2007,07,13,03,44,15.80
2007,07,13,03,45,15.80
2007,07,13,03,46,15.80
2007,07,13,03,47,15.80
2007,07,13,03,48,15.80
2007,07,13,03,49,15.80
2007,07,13,03,50,15.80
2007,07,13,03,51,15.80
2007,07,13,03,52,15.80
2007,07,13,03,53,15.80
2007,07,13,03,54,15.80
2007,07,13,03,55,15.80
2007,07,13,03,56,15.80
2007,07,13,03,57,15.80
2007,07,13,03,58,15.80
2007,07,13,03,59,15.80
2007,07,13,04,00,15.80
2007,07,13,04,01,15.80
2007,07,13,04,02,15.80
2007,07,13,04,03,15.80
2007,07,13,04,04,15.80
2007,07,13,04,05,15.80
2007,07,13,04,06,15.80
2007,07,13,04,07,15.80
2007,07,13,04,08,15.80
2007,07,13,04,09,15.80
2007,07,13,04,10,15.80
2007,07,13,04,11,15.80
2007,07,13,04,12,15.80
2007,07,13,04,13,15.80
2007,07,13,04,14,15.80
2007,07,13,04,15,15.80
2007,07,13,04,16,15.80
2007,07,13,04,17,15.80
2007,07,13,04,18,15.80
2007,07,13,04,19,15.70
2007,07,13,04,20,15.70
2007,07,13,04,21,15.70
2007,07,13,04,22,15.70
2007,07,13,04,23,15.70
2007,07,13,04,24,15.80
2007,07,13,04,25,15.80
2007,07,13,04,26,15.80
2007,07,13,04,27,15.80
2007,07,13,04,28,15.80
2007,07,13,04,29,15.80
2007,07,13,04,30,15.80
2007,07,13,04,31,15.80
2007,07,13,04,32,15.80
2007,07,13,04,33,15.80
2007,07,13,04,34,15.80
2007,07,13,04,35,15.80
2007,07,13,04,36,15.80
2007,07,13,04,37,15.80
2007,07,13,04,38,15.80
2007,07,13,04,39,15.80
2007,07,13,04,40,15.80
2007,07,13,04,41,15.80
2007,07,13,04,42,15.80
2007,07,13,04,43,15.80
2007,07,13,04,44,15.80
2007,07,13,04,45,15.80
2007,07,13,04,46,15.80
2007,07,13,04,47,15.80
2007,07,13,04,48,15.80
2007,07,13,04,49,15.70
2007,07,13,04,50,15.70
2007,07,13,04,51,15.60
2007,07,13,04,52,15.60
2007,07,13,04,53,15.50
2007,07,13,04,54,15.50
2007,07,13,04,55,15.40
2007,07,13,04,56,15.40
2007,07,13,04,57,15.40
2007,07,13,04,58,15.30
2007,07,13,04,59,15.30
2007,07,13,05,00,15.30
2007,07,13,05,01,15.30
2007,07,13,05,02,15.30
2007,07,13,05,03,15.30
2007,07,13,05,04,15.30
2007,07,13,05,05,15.30
2007,07,13,05,06,15.30
2007,07,13,05,07,15.30
2007,07,13,05,08,15.30
2007,07,13,05,09,15.30
2007,07,13,05,10,15.30
2007,07,13,05,11,15.30
2007,07,13,05,12,15.20
2007,07,13,05,13,15.20
2007,07,13,05,14,15.20
2007,07,13,05,15,15.20
2007,07,13,05,16,15.20
2007,07,13,05,17,15.20
2007,07,13,05,18,15.20
2007,07,13,05,19,15.20
2007,07,13,05,20,15.20
2007,07,13,05,21,15.10
2007,07,13,05,22,15.10
2007,07,13,05,23,15.10
2007,07,13,05,24,15.10
2007,07,13,05,25,15.00
2007,07,13,05,26,15.00
2007,07,13,05,27,15.00
2007,07,13,05,28,15.00
2007,07,13,05,29,15.00
2007,07,13,05,30,15.00
2007,07,13,05,31,15.00
2007,07,13,05,32,15.00
2007,07,13,05,33,15.00
2007,07,13,05,34,15.00
2007,07,13,05,35,15.00
2007,07,13,05,36,15.00
2007,07,13,05,37,14.90
2007,07,13,05,38,14.90
2007,07,13,05,39,15.00
2007,07,13,05,40,15.00
2007,07,13,05,41,15.00
2007,07,13,05,42,14.90
2007,07,13,05,43,14.90
2007,07,13,05,44,14.90
2007,07,13,05,45,14.90
2007,07,13,05,46,14.90
2007,07,13,05,47,14.90
2007,07,13,05,48,14.90
2007,07,13,05,49,14.90
2007,07,13,05,50,14.90
2007,07,13,05,51,14.90
2007,07,13,05,52,14.90
2007,07,13,05,53,15.00
2007,07,13,05,54,15.00
2007,07,13,05,55,14.90
2007,07,13,05,56,14.90
2007,07,13,05,57,14.90
2007,07,13,05,58,14.90
2007,07,13,05,59,14.90
2007,07,13,06,00,14.90
2007,07,13,06,01,14.90
2007,07,13,06,02,14.90
2007,07,13,06,03,14.90
2007,07,13,06,04,14.90
2007,07,13,06,05,14.90
2007,07,13,06,06,14.90
2007,07,13,06,07,14.90
2007,07,13,06,08,14.90
2007,07,13,06,09,14.90
2007,07,13,06,10,14.90
2007,07,13,06,11,14.90
2007,07,13,06,12,15.00
2007,07,13,06,13,15.00
2007,07,13,06,14,15.00
2007,07,13,06,15,15.00
2007,07,13,06,16,15.00
2007,07,13,06,17,15.00
2007,07,13,06,18,15.00
2007,07,13,06,19,15.10
2007,07,13,06,20,15.10
2007,07,13,06,21,15.10
2007,07,13,06,22,15.10
2007,07,13,06,23,15.10
2007,07,13,06,24,15.10
2007,07,13,06,25,15.10
2007,07,13,06,26,15.10
2007,07,13,06,27,15.10
2007,07,13,06,28,15.10
2007,07,13,06,29,15.10
2007,07,13,06,30,15.10
2007,07,13,06,31,15.10
2007,07,13,06,32,15.10
2007,07,13,06,33,15.20
2007,07,13,06,34,15.20
2007,07,13,06,35,15.20
2007,07,13,06,36,15.20
2007,07,13,06,37,15.20
2007,07,13,06,38,15.20
2007,07,13,06,39,15.30
2007,07,13,06,40,15.30
2007,07,13,06,41,15.30
2007,07,13,06,42,15.30
2007,07,13,06,43,15.30
2007,07,13,06,44,15.40
2007,07,13,06,45,15.50
2007,07,13,06,46,15.60
2007,07,13,06,47,15.60
2007,07,13,06,48,15.70
2007,07,13,06,49,15.80
2007,07,13,06,50,15.80
2007,07,13,06,51,15.80
2007,07,13,06,52,15.80
2007,07,13,06,53,15.90
2007,07,13,06,54,15.90
2007,07,13,06,55,16.00
2007,07,13,06,56,16.10
2007,07,13,06,57,16.10
2007,07,13,06,58,16.10
2007,07,13,06,59,16.10
2007,07,13,07,00,16.10
2007,07,13,07,01,16.10
2007,07,13,07,02,16.10
2007,07,13,07,03,16.10
2007,07,13,07,04,16.10
2007,07,13,07,05,16.20
2007,07,13,07,06,16.20
2007,07,13,07,07,16.20
2007,07,13,07,08,16.30
2007,07,13,07,09,16.30
2007,07,13,07,10,16.40
2007,07,13,07,11,16.40
2007,07,13,07,12,16.40
2007,07,13,07,13,16.40
2007,07,13,07,14,16.40
2007,07,13,07,15,16.40
2007,07,13,07,16,16.40
2007,07,13,07,17,16.40
2007,07,13,07,18,16.50
2007,07,13,07,19,16.60
2007,07,13,07,20,16.60
2007,07,13,07,21,16.60
2007,07,13,07,22,16.60
2007,07,13,07,23,16.60
2007,07,13,07,24,16.60
2007,07,13,07,25,16.60
2007,07,13,07,26,16.70
2007,07,13,07,27,16.70
2007,07,13,07,28,16.80
2007,07,13,07,29,16.90
2007,07,13,07,30,16.90
2007,07,13,07,31,16.90
2007,07,13,07,32,17.00
2007,07,13,07,33,17.00
2007,07,13,07,34,17.00
2007,07,13,07,35,17.00
2007,07,13,07,36,17.00
2007,07,13,07,37,17.00
2007,07,13,07,38,17.00
2007,07,13,07,39,17.00
2007,07,13,07,40,17.00
2007,07,13,07,41,17.10
2007,07,13,07,42,17.10
2007,07,13,07,43,17.10
2007,07,13,07,44,17.20
2007,07,13,07,45,17.30
2007,07,13,07,46,17.30
2007,07,13,07,47,17.30
2007,07,13,07,48,17.30
2007,07,13,07,49,17.30
2007,07,13,07,50,17.30
2007,07,13,07,51,17.40
2007,07,13,07,52,17.40
2007,07,13,07,53,17.40
2007,07,13,07,54,17.40
2007,07,13,07,55,17.50
2007,07,13,07,56,17.50
2007,07,13,07,57,17.50
2007,07,13,07,58,17.60
2007,07,13,07,59,17.70
2007,07,13,08,00,17.80
2007,07,13,08,01,17.90
2007,07,13,08,02,17.90
2007,07,13,08,03,17.90
2007,07,13,08,04,17.90
2007,07,13,08,05,17.90
2007,07,13,08,06,17.90
2007,07,13,08,07,17.90
2007,07,13,08,08,17.90
2007,07,13,08,09,17.90
2007,07,13,08,10,17.90
2007,07,13,08,11,17.90
2007,07,13,08,12,18.10
2007,07,13,08,13,18.10
2007,07,13,08,14,18.20
2007,07,13,08,15,18.20
2007,07,13,08,16,18.20
2007,07,13,08,17,18.30
2007,07,13,08,18,18.40
2007,07,13,08,19,18.50
2007,07,13,08,20,18.60
2007,07,13,08,21,18.60
2007,07,13,08,22,18.60
2007,07,13,08,23,18.60
2007,07,13,08,24,18.70
2007,07,13,08,25,18.80
2007,07,13,08,26,18.90
2007,07,13,08,27,18.90
2007,07,13,08,28,19.10
2007,07,13,08,29,19.10
2007,07,13,08,30,19.10
2007,07,13,08,31,19.00
2007,07,13,08,32,18.90
2007,07,13,08,33,18.90
2007,07,13,08,34,18.90
2007,07,13,08,35,18.90
2007,07,13,08,36,18.90
2007,07,13,08,37,18.80
2007,07,13,08,38,18.80
2007,07,13,08,39,18.80
2007,07,13,08,40,18.80
2007,07,13,08,41,18.80
2007,07,13,08,42,18.80
2007,07,13,08,43,18.90
2007,07,13,08,44,18.90
2007,07,13,08,45,19.00
2007,07,13,08,46,19.10
2007,07,13,08,47,19.10
2007,07,13,08,48,19.10
2007,07,13,08,49,19.10
2007,07,13,08,50,19.10
2007,07,13,08,51,19.10
2007,07,13,08,52,19.10
2007,07,13,08,53,19.10
2007,07,13,08,54,19.10
2007,07,13,08,55,19.10
2007,07,13,08,56,19.10
2007,07,13,08,57,19.20
2007,07,13,08,58,19.30
2007,07,13,08,59,19.40
2007,07,13,09,00,19.50
2007,07,13,09,01,19.50
2007,07,13,09,02,19.50
2007,07,13,09,03,19.50
2007,07,13,09,04,19.50
2007,07,13,09,05,19.50
2007,07,13,09,06,19.50
2007,07,13,09,07,19.40
2007,07,13,09,08,19.30
2007,07,13,09,09,19.30
2007,07,13,09,10,19.30
2007,07,13,09,11,19.30
2007,07,13,09,12,19.40
2007,07,13,09,13,19.40
2007,07,13,09,14,19.50
2007,07,13,09,15,19.50
2007,07,13,09,16,19.50
2007,07,13,09,17,19.60
2007,07,13,09,18,19.70
2007,07,13,09,19,19.80
2007,07,13,09,20,19.90
2007,07,13,09,21,19.90
2007,07,13,09,22,19.90
2007,07,13,09,23,19.90
2007,07,13,09,24,19.90
2007,07,13,09,25,20.10
2007,07,13,09,26,20.20
2007,07,13,09,27,20.20
2007,07,13,09,28,20.20
2007,07,13,09,29,20.30
2007,07,13,09,30,20.30
2007,07,13,09,31,20.30
2007,07,13,09,32,20.30
2007,07,13,09,33,20.30
2007,07,13,09,34,20.30
2007,07,13,09,35,20.30
2007,07,13,09,36,20.20
2007,07,13,09,37,20.20
2007,07,13,09,38,20.20
2007,07,13,09,39,20.20
2007,07,13,09,40,20.30
2007,07,13,09,41,20.40
2007,07,13,09,42,20.40
2007,07,13,09,43,20.50
2007,07,13,09,44,20.70
2007,07,13,09,45,20.80
2007,07,13,09,46,20.80
2007,07,13,09,47,20.80
2007,07,13,09,48,20.70
2007,07,13,09,49,20.70
2007,07,13,09,50,20.60
2007,07,13,09,51,20.50
2007,07,13,09,52,20.60
2007,07,13,09,53,20.70
2007,07,13,09,54,20.70
2007,07,13,09,55,20.70
2007,07,13,09,56,20.70
2007,07,13,09,57,20.70
2007,07,13,09,58,20.70
2007,07,13,09,59,20.80
2007,07,13,10,00,20.80
2007,07,13,10,01,20.80
2007,07,13,10,02,20.70
2007,07,13,10,03,20.70
2007,07,13,10,04,20.60
2007,07,13,10,05,20.60
2007,07,13,10,06,20.70
2007,07,13,10,07,20.80
2007,07,13,10,08,20.90
2007,07,13,10,09,20.90
2007,07,13,10,10,20.90
2007,07,13,10,11,20.80
2007,07,13,10,12,20.80
2007,07,13,10,13,20.80
2007,07,13,10,14,20.80
2007,07,13,10,15,20.80
2007,07,13,10,16,20.80
2007,07,13,10,17,20.80
2007,07,13,10,18,20.80
2007,07,13,10,19,20.90
2007,07,13,10,20,20.90
2007,07,13,10,21,20.90
2007,07,13,10,22,21.00
2007,07,13,10,23,21.00
2007,07,13,10,24,21.00
2007,07,13,10,25,21.10
2007,07,13,10,26,21.10
2007,07,13,10,27,21.30
2007,07,13,10,28,21.40
2007,07,13,10,29,21.50
2007,07,13,10,30,21.40
2007,07,13,10,31,21.40
2007,07,13,10,32,21.40
2007,07,13,10,33,21.30
2007,07,13,10,34,21.20
2007,07,13,10,35,21.20
2007,07,13,10,36,21.10
2007,07,13,10,37,21.10
2007,07,13,10,38,21.10
2007,07,13,10,39,21.10
2007,07,13,10,40,21.10
2007,07,13,10,41,21.10
2007,07,13,10,42,21.00
2007,07,13,10,43,20.90
2007,07,13,10,44,20.80
2007,07,13,10,45,20.80
2007,07,13,10,46,20.60
2007,07,13,10,47,20.50
2007,07,13,10,48,20.50
2007,07,13,10,49,20.40
2007,07,13,10,50,20.40
2007,07,13,10,51,20.40
2007,07,13,10,52,20.50
2007,07,13,10,53,20.40
2007,07,13,10,54,20.30
2007,07,13,10,55,20.20
2007,07,13,10,56,20.20
2007,07,13,10,57,20.20
2007,07,13,10,58,20.20
2007,07,13,10,59,20.20
2007,07,13,11,00,20.20
2007,07,13,11,01,20.20
2007,07,13,11,02,20.20
2007,07,13,11,03,20.30
2007,07,13,11,04,20.30
2007,07,13,11,05,20.30
2007,07,13,11,06,20.40
2007,07,13,11,07,20.40
2007,07,13,11,08,20.30
2007,07,13,11,09,20.20
2007,07,13,11,10,20.00
2007,07,13,11,11,19.90
2007,07,13,11,12,19.80
2007,07,13,11,13,19.70
2007,07,13,11,14,19.60
2007,07,13,11,15,19.60
2007,07,13,11,16,19.40
2007,07,13,11,17,19.30
2007,07,13,11,18,19.20
2007,07,13,11,19,19.20
2007,07,13,11,20,19.10
2007,07,13,11,21,19.10
2007,07,13,11,22,19.00
2007,07,13,11,23,19.00
2007,07,13,11,24,19.10
2007,07,13,11,25,19.10
2007,07,13,11,26,19.10
2007,07,13,11,27,19.20
2007,07,13,11,28,19.30
2007,07,13,11,29,19.30
2007,07,13,11,30,19.40
2007,07,13,11,31,19.30
2007,07,13,11,32,19.20
2007,07,13,11,33,19.10
2007,07,13,11,34,19.10
2007,07,13,11,35,19.00
2007,07,13,11,36,18.80
2007,07,13,11,37,18.60
2007,07,13,11,38,18.60
2007,07,13,11,39,18.60
2007,07,13,11,40,18.60
2007,07,13,11,41,18.60
2007,07,13,11,42,18.70
2007,07,13,11,43,18.80
2007,07,13,11,44,18.90
2007,07,13,11,45,18.70
2007,07,13,11,46,18.50
2007,07,13,11,47,18.50
2007,07,13,11,48,18.40
2007,07,13,11,49,18.40
2007,07,13,11,50,18.50
2007,07,13,11,51,18.50
2007,07,13,11,52,18.50
2007,07,13,11,53,18.50
2007,07,13,11,54,18.60
2007,07,13,11,55,18.70
2007,07,13,11,56,18.80
2007,07,13,11,57,18.90
2007,07,13,11,58,18.90
2007,07,13,11,59,18.90
2007,07,13,12,00,18.90
2007,07,13,12,01,19.10
2007,07,13,12,02,19.20
2007,07,13,12,03,19.40
2007,07,13,12,04,19.50
2007,07,13,12,05,19.60
2007,07,13,12,06,19.50
2007,07,13,12,07,19.40
2007,07,13,12,08,19.30
2007,07,13,12,09,19.20
2007,07,13,12,10,19.20
2007,07,13,12,11,19.10
2007,07,13,12,12,19.10
2007,07,13,12,13,18.90
2007,07,13,12,14,18.90
2007,07,13,12,15,18.80
2007,07,13,12,16,18.80
2007,07,13,12,17,19.00
2007,07,13,12,18,19.10
2007,07,13,12,19,19.10
2007,07,13,12,20,19.10
2007,07,13,12,21,19.10
2007,07,13,12,22,19.10
2007,07,13,12,23,19.10
2007,07,13,12,24,19.20
2007,07,13,12,25,19.40
2007,07,13,12,26,19.50
2007,07,13,12,27,19.40
2007,07,13,12,28,19.30
2007,07,13,12,29,19.00
2007,07,13,12,30,18.90
2007,07,13,12,31,18.80
2007,07,13,12,32,18.80
2007,07,13,12,33,18.90
2007,07,13,12,34,19.10
2007,07,13,12,35,19.20
2007,07,13,12,36,19.10
2007,07,13,12,37,19.00
2007,07,13,12,38,18.90
2007,07,13,12,39,18.90
2007,07,13,12,40,18.90
2007,07,13,12,41,18.90
2007,07,13,12,42,19.10
2007,07,13,12,43,19.00
2007,07,13,12,44,18.90
2007,07,13,12,45,18.90
2007,07,13,12,46,18.90
2007,07,13,12,47,18.90
2007,07,13,12,48,18.90
2007,07,13,12,49,18.90
2007,07,13,12,50,19.10
2007,07,13,12,51,19.10
2007,07,13,12,52,19.10
2007,07,13,12,53,19.10
2007,07,13,12,54,19.20
2007,07,13,12,55,19.40
2007,07,13,12,56,19.30
2007,07,13,12,57,19.30
2007,07,13,12,58,19.40
2007,07,13,12,59,19.30
2007,07,13,13,00,19.30
2007,07,13,13,01,19.20
2007,07,13,13,02,19.20
2007,07,13,13,03,19.30
2007,07,13,13,04,19.50
2007,07,13,13,05,19.50
2007,07,13,13,06,19.40
2007,07,13,13,07,19.40
2007,07,13,13,08,19.20
2007,07,13,13,09,19.20
2007,07,13,13,10,19.30
2007,07,13,13,11,19.50
2007,07,13,13,12,19.70
2007,07,13,13,13,19.70
2007,07,13,13,14,19.50
2007,07,13,13,15,19.40
2007,07,13,13,16,19.50
2007,07,13,13,17,19.50
2007,07,13,13,18,19.50
2007,07,13,13,19,19.60
2007,07,13,13,20,19.70
2007,07,13,13,21,19.70
2007,07,13,13,22,19.90
2007,07,13,13,23,19.90
2007,07,13,13,24,20.00
2007,07,13,13,25,20.20
2007,07,13,13,26,20.20
2007,07,13,13,27,20.20
2007,07,13,13,28,20.20
2007,07,13,13,29,20.20
2007,07,13,13,30,20.10
2007,07,13,13,31,20.10
2007,07,13,13,32,20.20
2007,07,13,13,33,20.20
2007,07,13,13,34,20.20
2007,07,13,13,35,20.20
2007,07,13,13,36,20.20
2007,07,13,13,37,20.20
2007,07,13,13,38,20.20
2007,07,13,13,39,20.20
2007,07,13,13,40,20.30
2007,07,13,13,41,20.40
2007,07,13,13,42,20.40
2007,07,13,13,43,20.50
2007,07,13,13,44,20.50
2007,07,13,13,45,20.60
2007,07,13,13,46,20.70
2007,07,13,13,47,20.60
2007,07,13,13,48,20.80
2007,07,13,13,49,20.90
2007,07,13,13,50,20.90
2007,07,13,13,51,20.80
2007,07,13,13,52,20.90
2007,07,13,13,53,21.00
2007,07,13,13,54,21.20
2007,07,13,13,55,21.20
2007,07,13,13,56,21.40
2007,07,13,13,57,21.30
2007,07,13,13,58,21.30
2007,07,13,13,59,21.20
2007,07,13,14,00,21.20
2007,07,13,14,01,21.20
2007,07,13,14,02,21.20
2007,07,13,14,03,21.40
2007,07,13,14,04,21.50
2007,07,13,14,05,21.40
2007,07,13,14,06,21.30
2007,07,13,14,07,21.20
2007,07,13,14,08,21.30
2007,07,13,14,09,21.30
2007,07,13,14,10,21.30
2007,07,13,14,11,21.20
2007,07,13,14,12,21.10
2007,07,13,14,13,21.00
2007,07,13,14,14,21.20
2007,07,13,14,15,21.20
2007,07,13,14,16,21.20
2007,07,13,14,17,21.20
2007,07,13,14,18,21.20
2007,07,13,14,19,21.30
2007,07,13,14,20,21.40
2007,07,13,14,21,21.60
2007,07,13,14,22,21.70
2007,07,13,14,23,21.80
2007,07,13,14,24,21.90
2007,07,13,14,25,21.90
2007,07,13,14,26,21.90
2007,07,13,14,27,21.80
2007,07,13,14,28,21.80
2007,07,13,14,29,21.80
2007,07,13,14,30,21.80
2007,07,13,14,31,21.90
2007,07,13,14,32,21.90
2007,07,13,14,33,21.90
2007,07,13,14,34,21.90
2007,07,13,14,35,21.90
2007,07,13,14,36,21.90
2007,07,13,14,37,21.80
2007,07,13,14,38,21.90
2007,07,13,14,39,21.90
2007,07,13,14,40,22.00
2007,07,13,14,41,22.00
2007,07,13,14,42,22.00
2007,07,13,14,43,22.00
2007,07,13,14,44,22.10
2007,07,13,14,45,22.00
2007,07,13,14,46,22.00
2007,07,13,14,47,22.00
2007,07,13,14,48,21.90
2007,07,13,14,49,21.80
2007,07,13,14,50,21.90
2007,07,13,14,51,22.00
2007,07,13,14,52,22.20
2007,07,13,14,53,22.40
2007,07,13,14,54,22.40
2007,07,13,14,55,22.30
2007,07,13,14,56,22.30
2007,07,13,14,57,22.40
2007,07,13,14,58,22.30
2007,07,13,14,59,22.30
2007,07,13,15,00,22.20
2007,07,13,15,01,22.30
2007,07,13,15,02,22.50
2007,07,13,15,03,22.60
2007,07,13,15,04,22.70
2007,07,13,15,05,22.90
2007,07,13,15,06,22.90
2007,07,13,15,07,22.90
2007,07,13,15,08,22.90
2007,07,13,15,09,22.90
2007,07,13,15,10,22.90
2007,07,13,15,11,23.00
2007,07,13,15,12,23.10
2007,07,13,15,13,23.10
2007,07,13,15,14,23.10
2007,07,13,15,15,23.00
2007,07,13,15,16,22.90
2007,07,13,15,17,23.00
2007,07,13,15,18,23.20
2007,07,13,15,19,23.20
2007,07,13,15,20,23.30
2007,07,13,15,21,23.30
2007,07,13,15,22,23.30
2007,07,13,15,23,23.30
2007,07,13,15,24,23.30
2007,07,13,15,25,23.10
2007,07,13,15,26,23.00
2007,07,13,15,27,22.90
2007,07,13,15,28,23.10
2007,07,13,15,29,23.20
2007,07,13,15,30,23.30
2007,07,13,15,31,23.30
2007,07,13,15,32,23.30
2007,07,13,15,33,23.30
2007,07,13,15,34,23.20
2007,07,13,15,35,23.20
2007,07,13,15,36,23.10
2007,07,13,15,37,23.10
2007,07,13,15,38,23.00
2007,07,13,15,39,23.00
2007,07,13,15,40,23.10
2007,07,13,15,41,23.20
2007,07,13,15,42,23.30
2007,07,13,15,43,23.30
2007,07,13,15,44,23.30
2007,07,13,15,45,23.20
2007,07,13,15,46,23.30
2007,07,13,15,47,23.30
2007,07,13,15,48,23.30
2007,07,13,15,49,23.30
2007,07,13,15,50,23.20
2007,07,13,15,51,23.30
2007,07,13,15,52,23.40
2007,07,13,15,53,23.40
2007,07,13,15,54,23.40
2007,07,13,15,55,23.50
2007,07,13,15,56,23.40
2007,07,13,15,57,23.30
2007,07,13,15,58,23.30
2007,07,13,15,59,23.30
2007,07,13,16,00,23.30
2007,07,13,16,01,23.30
2007,07,13,16,02,23.30
2007,07,13,16,03,23.30
2007,07,13,16,04,23.30
2007,07,13,16,05,23.40
2007,07,13,16,06,23.60
2007,07,13,16,07,23.70
2007,07,13,16,08,23.80
2007,07,13,16,09,23.70
2007,07,13,16,10,23.70
2007,07,13,16,11,23.70
2007,07,13,16,12,23.80
2007,07,13,16,13,23.70
2007,07,13,16,14,23.70
2007,07,13,16,15,23.70
2007,07,13,16,16,23.70
2007,07,13,16,17,23.50
2007,07,13,16,18,23.40
2007,07,13,16,19,23.40
2007,07,13,16,20,23.30
2007,07,13,16,21,23.30
2007,07,13,16,22,23.40
2007,07,13,16,23,23.40
2007,07,13,16,24,23.50
2007,07,13,16,25,23.60
2007,07,13,16,26,23.70
2007,07,13,16,27,23.80
2007,07,13,16,28,23.90
2007,07,13,16,29,23.90
2007,07,13,16,30,23.90
2007,07,13,16,31,23.90
2007,07,13,16,32,23.90
2007,07,13,16,33,23.90
2007,07,13,16,34,23.80
2007,07,13,16,35,23.70
2007,07,13,16,36,23.70
2007,07,13,16,37,23.60
2007,07,13,16,38,23.60
2007,07,13,16,39,23.60
2007,07,13,16,40,23.70
2007,07,13,16,41,23.70
2007,07,13,16,42,23.70
2007,07,13,16,43,23.80
2007,07,13,16,44,24.10
2007,07,13,16,45,24.10
2007,07,13,16,46,24.10
2007,07,13,16,47,24.10
2007,07,13,16,48,24.10
2007,07,13,16,49,24.00
2007,07,13,16,50,23.90
2007,07,13,16,51,23.80
2007,07,13,16,52,23.80
2007,07,13,16,53,23.80
2007,07,13,16,54,23.70
2007,07,13,16,55,23.70
2007,07,13,16,56,23.70
2007,07,13,16,57,23.70
2007,07,13,16,58,23.80
2007,07,13,16,59,23.90
2007,07,13,17,00,23.90
2007,07,13,17,01,23.90
2007,07,13,17,02,23.90
2007,07,13,17,03,23.90
2007,07,13,17,04,23.90
2007,07,13,17,05,23.90
2007,07,13,17,06,23.80
2007,07,13,17,07,23.70
2007,07,13,17,08,23.70
2007,07,13,17,09,23.80
2007,07,13,17,10,23.90
2007,07,13,17,11,23.90
2007,07,13,17,12,23.90
2007,07,13,17,13,23.90
2007,07,13,17,14,23.80
2007,07,13,17,15,23.80
2007,07,13,17,16,23.80
2007,07,13,17,17,23.70
2007,07,13,17,18,23.70
2007,07,13,17,19,23.80